Temp
66 67 67 67 67 67 67 66 66 65 65 65 64 64 64 64 65 64 64 65 64 63 63 62 62 62 61 61 61 61 61 60 61 62 62 62 60 60 59 59 58 57 57 56 55 54 54 54 54 56 60 64
64 65 65 65 66 66 65 65 65 64 64 64 64 64 63 64 64 64 64 64 63 62 62 62 61 61 60 61 61 60 60 60 61 61 61 60 60 59 58 58 57 56 55 54 54 54 54 53 54 56 60 64
64 63 63 64 64 64 64 64 64 63 62 62 62 63 62 63 63 63 63 63 62 61 61 61 61 60 60 60 60 60 60 60 61 61 60 60 59 58 58 56 55 55 54 53 53 53 53 53 54 56 60 63
65 62 61 61 61 61 59 58 57 56 56 56 56 56 59 61 62 62 64 61 62 61 60 60 60 59 60 60 60 59 59 59 60 59 59 59 58 57 57 55 54 53 53 52 52 52 52 53 56 60 62 62
65 63 61 61 58 56 56 56 55 55 55 56 56 58 58 60 64 65 64 63 62 59 61 59 58 59 59 59 59 59 59 59 59 58 58 57 57 56 54 53 52 51 50 50 51 51 52 54 59 59 60 61
63 63 63 64 63 62 59 57 57 59 60 56 61 57 61 63 65 64 63 63 58 61 60 59 58 58 58 58 58 58 58 58 58 57 56 54 53 52 52 51 52 51 48 48 50 50 53 57 58 58 59 60
63 65 65 63 62 60 58 57 59 60 60 60 59 60 61 62 63 63 63 61 57 59 58 58 57 57 58 57 57 56 57 55 54 54 53 53 52 51 49 50 52 53 53 53 50 52 55 56 56 57 58 59
64 65 64 63 62 62 61 60 59 59 59 59 58 59 61 61 59 59 59 52 51 53 59 57 52 51 52 53 54 55 55 54 51 51 50 49 50 50 51 52 53 53 54 55 56 56 56 55 55 56 57 57
62 63 63 62 62 61 61 60 59 59 58 57 57 58 59 57 57 58 59 59 59 59 59 59 58 57 57 55 53 50 51 50 49 49 49 51 51 53 51 50 52 53 53 54 54 54 54 54 55 55 55 56
61 61 61 61 60 60 60 59 58 58 58 57 56 57 56 57 56 57 57 57 57 57 57 57 57 57 56 54 53 54 53 52 51 50 49 50 50 51 51 50 50 52 53 53 53 53 53 54 54 54 54 55
60 62 61 60 60 59 58 59 57 57 57 57 55 55 56 56 56 56 56 55 55 55 56 55 56 56 56 54 54 54 53 50 50 49 49 49 49 49 48 48 48 49 50 51 51 51 51 52 52 53 53 53
60 60 59 58 57 58 57 58 57 57 56 54 55 55 57 57 57 56 55 54 54 54 55 54 54 55 54 54 53 54 52 49 49 48 48 48 47 47 47 47 48 49 49 49 50 49 49 50 51 51 51 51
59 58 57 56 56 55 54 58 57 56 55 55 55 55 54 56 55 56 55 53 53 54 52 52 53 53 53 53 52 52 51 49 48 47 47 47 47 48 47 48 48 48 49 50 50 49 48 49 49 49 50 50
58 58 56 53 53 53 53 55 55 53 54 55 54 53 54 54 55 55 54 53 53 52 51 51 50 51 51 51 51 51 49 49 49 47 47 47 47 47 47 48 48 48 47 48 48 48 48 48 49 48 48 48
56 55 55 54 53 52 52 51 52 53 52 53 54 54 52 53 54 54 53 52 52 52 50 50 50 51 50 50 50 50 49 49 48 47 46 46 46 47 47 47 48 48 47 47 46 46 47 47 48 47 48 48
54 54 54 53 52 50 51 50 51 52 52 50 52 51 50 52 52 53 52 51 51 51 50 50 50 49 49 49 49 49 48 47 47 46 46 45 46 47 47 47 47 48 48 47 46 46 45 46 46 46 47 46
52 53 52 51 50 49 48 50 49 49 50 50 49 49 50 51 50 52 51 50 50 50 50 49 48 48 48 48 48 48 45 45 45 45 44 43 44 45 46 46 45 45 47 46 45 46 45 46 45 46 46 45
51 51 51 50 49 47 46 47 46 47 49 48 48 48 48 49 49 50 51 50 48 50 49 48 48 47 47 47 46 46 45 45 45 45 44 43 44 44 45 44 45 45 45 45 45 45 44 46 45 45 45 45
49 50 50 48 46 45 45 45 46 46 47 47 47 47 47 48 48 49 49 49 49 48 49 48 47 46 47 46 46 45 45 46 45 45 44 44 45 44 46 45 45 45 45 44 44 44 45 45 45 45 44 44
48 47 46 45 44 44 45 46 46 46 46 46 45 46 46 47 47 47 48 48 48 48 48 48 47 47 46 44 46 45 45 45 44 44 44 45 45 44 44 44 44 46 44 44 44 44 45 45 44 45 44 43
45 45 44 43 42 41 43 44 44 44 44 44 44 44 44 46 46 46 46 47 47 48 47 48 47 47 44 45 45 44 44 44 45 44 42 44 45 46 44 44 44 45 45 44 44 44 44 44 44 44 44 44
43 43 42 40 39 39 40 42 43 43 44 44 44 44 43 44 45 45 45 46 46 48 47 47 46 45 44 44 45 44 44 44 45 44 44 43 44 45 45 45 44 44 45 43 43 43 43 43 44 44 44 44
40 40 39 38 38 37 38 39 40 41 42 44 44 43 42 42 44 45 44 44 45 46 46 46 45 44 43 44 44 44 44 44 43 43 44 43 43 44 46 46 45 46 45 43 42 42 43 43 44 45 45 44
37 38 36 35 35 35 36 37 37 39 41 43 43 42 41 41 43 44 44 44 45 45 45 45 44 44 43 44 44 43 43 43 43 42 41 42 42 42 43 45 46 46 44 44 43 42 43 43 43 43 43 44
36 35 35 35 35 36 37 37 37 38 40 41 41 39 40 41 42 42 43 43 44 44 44 45 44 43 42 44 44 43 43 44 43 43 43 43 43 41 41 42 44 44 45 43 42 42 41 42 44 43 42 43
37 38 38 37 36 38 37 36 36 37 39 39 39 39 40 41 41 41 43 43 44 44 44 44 44 43 43 43 43 44 45 44 44 42 43 43 42 44 43 43 44 44 45 43 42 40 40 42 44 43 42 42
36 38 40 39 37 38 37 39 39 39 38 38 38 38 39 41 41 40 40 42 43 43 44 44 44 44 44 43 44 43 43 43 42 43 43 43 43 42 44 45 45 44 46 44 46 47 45 41 40 42 41 43
38 38 35 34 36 38 37 36 36 36 37 37 36 36 38 39 40 40 40 41 43 43 44 45 44 45 44 44 45 44 43 43 42 42 43 43 44 44 41 42 41 44 45 47 46 38 40 42 41 39 41 42
37 35 34 33 34 34 34 35 35 35 35 36 36 37 38 38 39 39 39 41 42 44 44 44 44 44 44 44 44 45 44 43 43 43 43 43 43 44 42 38 39 41 44 43 48 43 41 37 36 39 43 45
35 35 34 32 31 30 32 33 33 33 35 36 36 37 41 40 40 39 40 41 42 43 43 43 44 44 43 43 41 41 44 45 44 43 42 43 44 43 45 41 38 36 41 42 42 36 36 35 41 42 43 43
35 35 35 34 34 34 33 34 37 39 40 39 39 39 38 39 39 40 40 40 42 42 43 43 43 43 42 40 40 40 41 42 40 39 41 41 42 43 44 44 38 35 36 37 34 32 32 30 30 29 38 42
MSLP
1017.96 1018.20 1018.48 1018.72 1018.92 1019.28 1019.44 1019.76 1020.16 1020.44 1020.68 1020.84 1021.00 1021.20 1021.44 1021.52 1021.56 1021.68 1021.92 1021.92 1022.24 1022.40 1022.56 1022.72 1022.80 1022.96 1023.16 1023.24 1023.40 1023.56 1023.64 1023.76 1023.68 1023.56 1023.60 1023.72 1023.88 1024.08 1024.28 1024.48 1024.60 1024.80 1024.92 1025.04 1025.00 1024.96 1024.96 1024.92 1024.92 1024.84 1024.60 1024.40
1018.16 1018.44 1018.64 1018.84 1019.08 1019.44 1019.68 1020.00 1020.32 1020.60 1020.80 1020.96 1021.04 1021.20 1021.48 1021.64 1021.72 1021.88 1022.04 1022.20 1022.44 1022.68 1022.84 1022.96 1023.08 1023.20 1023.36 1023.48 1023.60 1023.76 1023.88 1023.92 1023.84 1023.84 1023.92 1024.04 1024.24 1024.44 1024.64 1024.84 1025.00 1025.20 1025.28 1025.32 1025.24 1025.20 1025.20 1025.20 1025.20 1025.12 1024.88 1024.76
1018.40 1018.60 1018.84 1019.00 1019.36 1019.68 1019.84 1020.12 1020.48 1020.72 1020.92 1021.08 1021.20 1021.40 1021.60 1021.84 1021.96 1022.16 1022.32 1022.44 1022.80 1023.00 1023.12 1023.24 1023.32 1023.44 1023.60 1023.72 1023.92 1024.00 1024.12 1024.16 1024.16 1024.20 1024.32 1024.44 1024.60 1024.76 1024.92 1025.16 1025.44 1025.60 1025.68 1025.60 1025.44 1025.44 1025.44 1025.44 1025.40 1025.32 1025.24 1025.20
1018.60 1018.80 1019.04 1019.36 1019.68 1019.92 1020.16 1020.52 1020.80 1021.04 1021.24 1021.40 1021.52 1021.76 1021.88 1022.00 1022.24 1022.48 1022.60 1022.88 1023.08 1023.28 1023.40 1023.48 1023.56 1023.68 1023.80 1024.00 1024.16 1024.24 1024.36 1024.44 1024.52 1024.64 1024.72 1024.84 1024.96 1025.08 1025.24 1025.52 1025.80 1025.96 1026.00 1025.92 1025.76 1025.68 1025.68 1025.60 1025.52 1025.44 1025.48 1025.56
1018.72 1019.04 1019.28 1019.64 1020.00 1020.32 1020.56 1020.76 1021.04 1021.28 1021.48 1021.60 1021.80 1021.96 1022.12 1022.20 1022.32 1022.52 1022.80 1023.12 1023.40 1023.64 1023.68 1023.76 1023.84 1023.92 1024.04 1024.20 1024.44 1024.52 1024.64 1024.72 1024.84 1025.00 1025.12 1025.24 1025.32 1025.44 1025.72 1026.00 1026.24 1026.40 1026.40 1026.28 1026.12 1026.00 1025.92 1025.76 1025.68 1025.88 1025.88 1025.80
1018.88 1019.16 1019.36 1019.68 1020.08 1020.44 1020.76 1021.04 1021.28 1021.44 1021.56 1021.80 1021.92 1022.16 1022.24 1022.32 1022.40 1022.64 1022.96 1023.24 1023.64 1023.84 1024.00 1024.04 1024.12 1024.16 1024.28 1024.48 1024.76 1024.88 1024.96 1025.00 1025.20 1025.36 1025.60 1025.92 1026.12 1026.20 1026.24 1026.44 1026.52 1026.68 1026.72 1026.60 1026.44 1026.32 1026.16 1026.00 1026.12 1026.24 1026.20 1026.16
1018.92 1019.08 1019.40 1019.84 1020.24 1020.68 1020.96 1021.28 1021.44 1021.60 1021.72 1021.84 1022.08 1022.20 1022.36 1022.52 1022.80 1022.92 1023.12 1023.52 1023.84 1023.96 1024.12 1024.36 1024.44 1024.40 1024.52 1024.76 1025.04 1025.28 1025.36 1025.60 1025.84 1026.00 1026.20 1026.36 1026.56 1026.56 1026.68 1026.84 1026.72 1026.68 1026.68 1026.72 1026.68 1026.48 1026.36 1026.40 1026.52 1026.56 1026.48 1026.40
1018.92 1019.16 1019.52 1019.96 1020.32 1020.68 1021.04 1021.36 1021.60 1021.72 1021.88 1022.08 1022.28 1022.40 1022.52 1022.76 1023.12 1023.36 1023.72 1024.16 1024.28 1024.40 1024.44 1024.68 1024.92 1024.96 1025.00 1025.16 1025.40 1025.60 1025.72 1026.00 1026.40 1026.60 1026.88 1027.00 1026.80 1026.80 1026.96 1026.96 1026.88 1026.80 1026.72 1026.68 1026.64 1026.64 1026.68 1026.80 1026.92 1026.84 1026.80 1026.84
1018.92 1019.24 1019.56 1020.04 1020.40 1020.68 1021.00 1021.36 1021.60 1021.80 1022.04 1022.32 1022.48 1022.60 1022.76 1023.08 1023.36 1023.56 1023.84 1024.08 1024.32 1024.44 1024.64 1024.76 1024.92 1025.08 1025.24 1025.44 1025.80 1025.96 1026.20 1026.48 1026.88 1027.08 1027.32 1027.20 1027.08 1027.12 1027.32 1027.24 1027.08 1026.96 1026.92 1026.92 1026.92 1026.92 1027.04 1027.12 1027.16 1027.20 1027.20 1027.24
1019.00 1019.24 1019.60 1020.12 1020.52 1020.76 1021.08 1021.40 1021.64 1021.88 1022.12 1022.40 1022.64 1022.76 1023.04 1023.28 1023.52 1023.76 1024.00 1024.28 1024.48 1024.68 1024.84 1024.96 1025.08 1025.20 1025.44 1025.76 1026.04 1026.12 1026.32 1026.56 1026.88 1027.24 1027.40 1027.40 1027.40 1027.44 1027.56 1027.52 1027.36 1027.24 1027.12 1027.12 1027.16 1027.24 1027.36 1027.40 1027.44 1027.48 1027.56 1027.60
1019.00 1019.24 1019.56 1020.12 1020.52 1020.76 1021.16 1021.44 1021.68 1021.96 1022.16 1022.40 1022.72 1022.92 1023.16 1023.28 1023.52 1023.80 1024.12 1024.44 1024.68 1024.88 1025.00 1025.20 1025.32 1025.44 1025.68 1025.92 1026.12 1026.28 1026.48 1026.92 1027.16 1027.40 1027.48 1027.56 1027.68 1027.80 1027.92 1027.88 1027.76 1027.64 1027.56 1027.48 1027.52 1027.64 1027.72 1027.72 1027.72 1027.76 1027.88 1027.92
1019.00 1019.28 1019.68 1020.24 1020.72 1020.88 1021.20 1021.40 1021.68 1021.96 1022.20 1022.52 1022.76 1022.96 1023.08 1023.28 1023.52 1023.76 1024.12 1024.48 1024.76 1025.04 1025.20 1025.44 1025.60 1025.72 1025.92 1026.08 1026.32 1026.52 1026.76 1027.08 1027.32 1027.52 1027.60 1027.76 1027.96 1028.08 1028.16 1028.16 1027.96 1027.84 1027.84 1027.84 1027.84 1027.92 1028.04 1028.08 1028.04 1028.12 1028.16 1028.28
1018.96 1019.40 1019.84 1020.32 1020.64 1020.96 1021.36 1021.36 1021.64 1021.92 1022.28 1022.48 1022.72 1023.00 1023.24 1023.36 1023.56 1023.80 1024.12 1024.48 1024.80 1025.04 1025.36 1025.68 1025.80 1025.88 1026.08 1026.28 1026.52 1026.72 1026.96 1027.24 1027.44 1027.56 1027.72 1027.88 1027.96 1028.12 1028.20 1028.20 1028.16 1028.08 1028.08 1028.00 1028.08 1028.16 1028.32 1028.32 1028.40 1028.48 1028.48 1028.56
1019.00 1019.40 1019.92 1020.40 1020.68 1021.04 1021.40 1021.48 1021.72 1022.08 1022.24 1022.40 1022.68 1023.00 1023.28 1023.48 1023.60 1023.84 1024.08 1024.52 1024.84 1025.08 1025.48 1025.76 1026.00 1026.12 1026.28 1026.48 1026.72 1026.92 1027.16 1027.36 1027.48 1027.64 1027.80 1027.92 1028.04 1028.20 1028.24 1028.20 1028.28 1028.24 1028.28 1028.32 1028.36 1028.40 1028.52 1028.56 1028.64 1028.72 1028.76 1028.84
1019.08 1019.44 1019.80 1020.28 1020.64 1021.08 1021.36 1021.68 1021.88 1022.12 1022.36 1022.48 1022.64 1022.92 1023.36 1023.56 1023.76 1023.92 1024.16 1024.48 1024.80 1025.08 1025.44 1025.76 1026.00 1026.16 1026.44 1026.68 1026.96 1027.12 1027.36 1027.52 1027.64 1027.80 1027.84 1027.96 1028.00 1028.12 1028.16 1028.24 1028.36 1028.32 1028.40 1028.52 1028.64 1028.72 1028.72 1028.80 1028.80 1028.92 1029.04 1029.20
1019.24 1019.52 1019.88 1020.24 1020.60 1021.04 1021.36 1021.72 1021.92 1022.12 1022.36 1022.56 1022.72 1023.08 1023.40 1023.60 1023.88 1024.04 1024.28 1024.52 1024.80 1025.04 1025.36 1025.64 1025.92 1026.28 1026.48 1026.76 1027.12 1027.32 1027.56 1027.72 1027.84 1027.92 1028.08 1028.16 1028.12 1028.12 1028.12 1028.28 1028.40 1028.40 1028.40 1028.56 1028.72 1028.92 1029.04 1029.08 1029.12 1029.28 1029.36 1029.52
1019.28 1019.56 1019.96 1020.32 1020.68 1021.04 1021.44 1021.68 1022.00 1022.24 1022.40 1022.60 1022.88 1023.16 1023.44 1023.64 1023.96 1024.12 1024.32 1024.60 1024.84 1025.08 1025.32 1025.64 1026.00 1026.24 1026.56 1026.84 1027.12 1027.48 1027.84 1028.04 1028.12 1028.20 1028.28 1028.44 1028.40 1028.28 1028.20 1028.28 1028.44 1028.56 1028.52 1028.68 1028.88 1029.00 1029.16 1029.28 1029.40 1029.48 1029.56 1029.68
1019.32 1019.72 1020.08 1020.44 1020.80 1021.20 1021.52 1021.76 1022.12 1022.36 1022.52 1022.76 1022.96 1023.20 1023.52 1023.76 1024.00 1024.16 1024.32 1024.56 1024.88 1025.04 1025.32 1025.72 1025.96 1026.20 1026.52 1026.88 1027.24 1027.56 1027.92 1028.12 1028.16 1028.16 1028.32 1028.40 1028.32 1028.32 1028.20 1028.28 1028.36 1028.44 1028.56 1028.80 1028.96 1029.12 1029.32 1029.28 1029.48 1029.56 1029.64 1029.72
1019.36 1019.72 1020.08 1020.52 1020.92 1021.32 1021.60 1021.92 1022.16 1022.40 1022.64 1022.92 1023.04 1023.24 1023.52 1023.76 1024.00 1024.24 1024.40 1024.56 1024.76 1025.04 1025.28 1025.60 1025.92 1026.20 1026.44 1026.84 1027.16 1027.48 1027.76 1027.96 1028.16 1028.24 1028.32 1028.28 1028.16 1028.28 1028.16 1028.28 1028.36 1028.36 1028.52 1028.72 1028.92 1029.08 1029.20 1029.28 1029.48 1029.60 1029.68 1029.84
1019.40 1019.76 1020.20 1020.64 1021.00 1021.32 1021.64 1021.84 1022.12 1022.40 1022.60 1022.92 1023.12 1023.28 1023.44 1023.72 1023.96 1024.20 1024.44 1024.60 1024.76 1024.96 1025.20 1025.44 1025.76 1026.08 1026.44 1026.84 1027.04 1027.28 1027.64 1027.92 1028.08 1028.24 1028.32 1028.28 1028.12 1028.12 1028.20 1028.28 1028.40 1028.36 1028.52 1028.68 1028.88 1029.00 1029.04 1029.20 1029.40 1029.44 1029.60 1029.80
1019.68 1020.00 1020.40 1020.80 1021.20 1021.52 1021.72 1021.92 1022.20 1022.44 1022.68 1023.00 1023.20 1023.28 1023.44 1023.64 1023.88 1024.20 1024.44 1024.64 1024.80 1024.88 1025.12 1025.32 1025.64 1026.00 1026.48 1026.72 1026.88 1027.20 1027.44 1027.68 1027.84 1028.16 1028.36 1028.32 1028.28 1028.04 1028.04 1028.24 1028.28 1028.36 1028.44 1028.64 1028.88 1029.00 1029.08 1029.20 1029.32 1029.32 1029.44 1029.60
1020.08 1020.36 1020.68 1021.12 1021.52 1021.84 1022.00 1022.16 1022.36 1022.52 1022.68 1022.92 1023.12 1023.24 1023.36 1023.56 1023.76 1024.08 1024.40 1024.60 1024.76 1024.84 1025.04 1025.24 1025.52 1025.96 1026.36 1026.64 1026.80 1027.04 1027.24 1027.36 1027.60 1027.92 1028.12 1028.24 1028.32 1028.12 1028.04 1028.00 1028.12 1028.20 1028.32 1028.60 1028.80 1028.96 1029.12 1029.20 1029.16 1029.16 1029.32 1029.44
1020.52 1020.88 1021.16 1021.52 1021.84 1022.16 1022.32 1022.48 1022.64 1022.72 1022.80 1022.80 1023.00 1023.16 1023.28 1023.52 1023.64 1023.92 1024.28 1024.52 1024.72 1024.76 1025.00 1025.20 1025.48 1025.84 1026.24 1026.44 1026.68 1026.88 1027.04 1027.20 1027.48 1027.72 1027.92 1028.00 1028.20 1028.32 1028.08 1027.84 1027.96 1027.96 1028.20 1028.56 1028.76 1028.92 1029.04 1029.16 1029.12 1029.12 1029.24 1029.36
1020.76 1021.16 1021.48 1021.84 1022.16 1022.40 1022.44 1022.56 1022.76 1022.88 1022.76 1022.80 1022.96 1023.12 1023.32 1023.44 1023.44 1023.68 1024.00 1024.36 1024.56 1024.64 1024.84 1025.04 1025.32 1025.64 1026.04 1026.24 1026.40 1026.68 1026.80 1026.92 1027.12 1027.40 1027.68 1027.88 1028.04 1028.28 1028.32 1028.20 1028.00 1028.08 1028.20 1028.40 1028.68 1028.88 1029.00 1029.04 1029.12 1029.12 1029.20 1029.24
1020.40 1020.84 1021.52 1021.92 1021.80 1021.68 1021.96 1022.24 1022.52 1022.76 1022.68 1022.76 1022.92 1023.16 1023.32 1023.44 1023.44 1023.56 1023.76 1024.08 1024.36 1024.48 1024.64 1024.84 1025.12 1025.44 1025.84 1026.00 1026.16 1026.32 1026.48 1026.60 1026.80 1027.12 1027.32 1027.60 1027.92 1028.12 1028.20 1028.24 1028.16 1028.20 1028.04 1028.16 1028.40 1028.72 1028.84 1028.84 1028.92 1029.04 1029.16 1029.00
1019.84 1019.84 1019.72 1019.80 1020.48 1020.80 1021.40 1021.84 1022.20 1022.36 1022.52 1022.68 1022.88 1023.12 1023.24 1023.36 1023.48 1023.60 1023.56 1023.80 1024.08 1024.32 1024.48 1024.60 1024.92 1025.20 1025.48 1025.72 1025.88 1026.00 1026.24 1026.52 1026.76 1027.04 1027.12 1027.24 1027.56 1027.76 1027.76 1027.60 1027.92 1027.96 1027.88 1027.68 1027.28 1027.80 1028.12 1028.32 1028.36 1028.60 1028.80 1028.80
1019.84 1020.04 1020.08 1020.24 1020.56 1020.72 1021.24 1021.68 1021.88 1022.12 1022.36 1022.72 1022.92 1023.04 1023.20 1023.28 1023.44 1023.60 1023.64 1023.64 1023.80 1024.04 1024.28 1024.36 1024.60 1024.88 1025.16 1025.44 1025.56 1025.80 1026.00 1026.28 1026.56 1026.72 1026.80 1026.88 1026.76 1027.20 1027.36 1027.20 1027.68 1027.76 1027.36 1026.72 1026.72 1026.68 1026.64 1026.80 1027.28 1027.56 1028.24 1028.08
1019.96 1020.32 1020.64 1020.84 1020.92 1021.04 1021.28 1021.72 1022.08 1022.36 1022.60 1022.84 1023.04 1023.08 1023.08 1023.16 1023.28 1023.44 1023.48 1023.52 1023.60 1023.72 1023.92 1024.08 1024.24 1024.48 1024.76 1025.08 1025.20 1025.28 1025.48 1025.76 1026.04 1026.28 1026.44 1026.60 1026.52 1026.48 1026.84 1027.00 1027.40 1027.52 1027.28 1026.68 1026.32 1026.92 1026.00 1024.88 1025.40 1025.40 1026.12 1026.60
1019.68 1020.24 1020.68 1021.04 1021.32 1021.52 1021.80 1022.12 1022.28 1022.48 1022.60 1022.64 1022.76 1022.76 1022.80 1022.76 1023.04 1023.24 1023.28 1023.36 1023.44 1023.48 1023.64 1023.84 1024.00 1024.12 1024.36 1024.64 1024.80 1024.96 1025.04 1025.24 1025.40 1025.68 1025.88 1026.08 1026.12 1026.04 1025.96 1026.52 1026.80 1027.28 1027.16 1027.16 1026.40 1025.80 1025.44 1026.48 1026.44 1024.64 1023.76 1025.32
1019.52 1019.76 1020.04 1020.48 1021.00 1021.48 1021.60 1021.68 1021.80 1021.44 1021.04 1021.48 1021.76 1021.76 1022.00 1022.52 1022.76 1023.00 1023.12 1023.12 1023.16 1023.28 1023.44 1023.60 1023.80 1023.96 1024.12 1024.32 1024.52 1024.64 1024.64 1024.84 1025.16 1025.36 1025.52 1025.68 1025.76 1025.84 1025.76 1025.76 1026.44 1026.88 1027.16 1027.16 1027.00 1027.48 1027.32 1027.00 1024.72 1023.60 1024.56 1024.92
1019.32 1019.72 1019.88 1019.72 1019.52 1019.60 1019.76 1019.76 1019.96 1020.04 1020.40 1020.76 1021.16 1021.56 1021.84 1022.12 1022.52 1022.76 1022.92 1022.96 1023.00 1023.04 1023.20 1023.32 1023.48 1023.68 1023.88 1024.04 1024.20 1024.40 1024.48 1024.56 1024.68 1024.92 1025.20 1025.44 1025.56 1025.44 1025.64 1025.60 1025.76 1026.32 1026.60 1027.28 1027.56 1027.80 1027.84 1028.24 1028.20 1028.28 1025.84 1023.96
Wind_Speed
17 18 19 19 20 18 17 16 15 14 14 13 13 13 12 10 11 11 11 10 13 13 13 13 14 14 14 14 14 14 15 16 17 17 17 18 19 19 18 18 18 18 17 16 16 16 16 15 14 12 11 11
17 16 17 17 17 18 18 17 14 14 13 12 12 13 13 11 11 11 11 11 13 14 13 13 13 15 15 14 13 14 15 16 17 17 17 18 18 18 18 18 18 17 16 15 16 16 16 15 14 13 10 12
15 16 15 16 16 16 17 16 14 12 11 10 10 10 11 11 11 11 11 11 13 13 13 12 13 13 14 14 13 14 14 15 16 16 16 16 16 17 18 19 18 17 16 14 16 16 15 14 13 12 11 10
11 16 17 16 16 15 16 16 16 15 14 14 14 13 10 10 12 11 10 13 11 12 12 12 11 13 15 14 14 14 15 15 15 15 15 15 16 17 18 19 17 16 15 14 15 15 14 12 11 9 8 10
13 14 17 15 16 16 16 16 15 15 14 13 12 11 11 10 10 9 9 10 10 11 8 10 12 12 14 15 14 13 14 14 15 14 15 15 16 18 19 17 17 15 12 13 14 13 12 12 9 8 8 9
9 12 15 15 13 12 13 14 12 9 9 10 9 10 9 8 7 8 8 8 10 8 8 9 9 11 13 15 14 13 13 14 14 15 16 17 16 17 17 16 9 9 11 12 12 11 11 9 8 8 8 9
10 13 12 12 10 9 11 11 10 9 8 7 7 8 8 8 7 7 7 6 6 7 9 8 6 10 13 15 14 13 14 16 15 14 13 14 15 16 14 6 5 6 6 7 9 9 8 8 7 8 9 9
9 10 10 9 9 9 8 8 7 8 8 7 7 7 7 6 7 8 7 9 11 7 8 8 14 16 17 14 12 13 13 16 16 14 12 10 11 10 5 4 4 5 5 5 5 6 7 7 7 7 7 7
9 9 9 9 8 8 8 7 7 7 7 7 7 7 6 7 7 7 7 8 7 6 6 8 7 7 7 7 7 9 7 7 8 8 5 4 5 6 4 3 4 4 5 5 6 6 6 7 7 7 7 7
10 10 9 8 7 8 7 7 7 7 7 7 7 6 7 7 7 7 7 6 6 6 5 5 5 5 6 7 7 6 6 5 5 5 4 4 4 4 3 2 2 3 5 5 5 6 6 6 6 6 6 6
9 8 9 8 8 8 7 7 7 7 7 7 7 7 7 8 7 7 7 6 6 6 5 5 5 5 6 6 6 5 6 6 5 4 4 4 4 3 3 2 3 4 5 5 6 6 6 5 6 6 6 5
8 7 8 8 8 7 7 8 7 7 7 7 7 7 7 7 7 7 7 7 6 5 5 5 4 5 5 5 5 5 6 6 4 4 4 4 5 4 3 2 3 4 5 5 5 6 5 5 5 5 5 5
8 8 8 8 7 6 7 7 7 7 8 8 7 6 7 7 7 7 7 7 7 6 5 5 5 5 5 5 5 5 5 5 4 5 4 5 5 4 4 3 3 4 4 4 5 5 5 5 6 5 5 5
8 8 9 7 7 7 6 6 6 8 7 7 7 7 6 6 7 7 7 7 6 7 6 5 5 5 5 5 5 5 5 4 4 5 5 5 6 5 4 4 4 4 4 5 4 4 5 5 5 5 5 5
8 7 8 8 7 7 6 6 7 6 6 6 7 7 7 6 6 6 7 7 7 7 7 6 6 5 5 5 4 4 4 4 4 5 5 6 6 6 5 4 4 4 5 5 5 4 5 5 5 5 4 4
8 8 8 8 7 7 7 8 6 6 6 6 6 7 7 7 6 6 6 8 7 7 7 7 6 6 6 5 5 4 4 4 4 4 5 5 5 5 5 5 4 4 5 5 4 4 5 4 4 4 4 4
6 6 6 7 6 6 7 7 6 5 6 6 6 7 7 7 7 6 7 7 7 7 7 7 7 6 6 5 5 5 5 5 4 4 5 5 4 5 5 5 5 4 4 5 5 5 5 4 4 4 4 4
7 7 6 5 5 6 6 5 6 5 5 5 6 7 8 7 7 7 6 7 8 7 7 7 7 7 6 5 6 6 6 5 5 5 5 6 5 5 6 6 6 6 6 5 5 5 5 4 4 4 4 4
7 7 7 6 6 6 6 6 5 6 6 5 6 6 7 8 7 7 7 7 8 7 7 7 7 7 6 6 7 6 6 6 5 5 6 6 6 6 6 6 6 6 6 7 7 6 5 5 5 4 4 4
7 8 6 5 5 6 6 6 6 6 6 6 5 6 7 8 8 7 8 8 8 7 7 7 7 7 6 8 7 7 7 6 6 6 5 6 6 7 7 7 7 6 6 6 6 6 5 5 5 5 5 5
7 7 7 6 6 5 5 5 5 6 6 5 6 6 6 8 8 8 8 8 8 7 8 7 7 7 8 8 7 7 7 7 6 6 6 6 6 6 7 7 8 7 6 6 6 6 6 6 5 5 5 5
5 6 6 6 5 5 4 4 4 5 6 6 6 6 6 8 8 8 8 8 8 7 7 7 7 7 9 8 7 8 8 8 7 7 7 6 6 6 6 7 8 8 7 6 6 6 6 6 5 5 5 5
6 6 6 6 6 5 4 3 3 4 5 6 6 6 7 9 8 8 9 9 9 8 8 7 7 8 9 8 8 8 8 8 8 8 8 7 7 5 5 6 7 7 7 6 5 5 6 5 5 4 4 4
6 5 5 6 5 4 4 4 4 4 5 5 6 6 7 8 8 9 9 10 9 8 8 8 8 9 10 9 8 9 9 9 9 11 10 9 8 8 5 4 5 6 7 6 6 5 5 5 5 5 5 6
8 9 7 3 6 8 8 7 7 6 6 6 5 6 7 8 7 9 10 10 10 9 8 8 8 9 10 9 9 9 10 9 10 10 10 8 7 9 8 6 5 6 7 7 6 5 5 5 6 6 7 7
8 7 6 7 8 8 8 8 8 8 7 6 5 7 8 7 6 8 9 10 10 9 9 9 9 9 10 10 9 9 9 10 9 11 10 9 8 8 9 7 8 8 8 8 8 8 6 6 6 8 8 8
8 4 2 2 4 6 6 4 3 3 4 5 5 6 7 7 7 8 8 10 11 9 10 10 9 10 9 10 10 10 10 10 11 11 13 12 10 9 9 7 7 9 11 5 7 7 6 7 7 8 8 10
5 4 6 6 5 6 5 4 5 4 4 4 5 7 7 7 8 9 9 10 11 9 11 11 11 10 10 11 11 11 11 11 12 12 12 12 12 10 10 9 9 9 12 6 9 6 7 4 6 5 10 11
7 8 6 6 7 6 6 5 4 4 5 7 7 7 9 10 9 10 9 10 11 10 11 11 11 11 11 11 11 11 11 11 12 13 12 13 12 13 10 9 7 10 11 10 7 3 5 2 3 6 2 9
9 9 10 8 8 8 7 7 9 12 13 12 12 12 8 9 11 10 10 10 12 12 11 12 12 11 11 11 10 10 10 10 11 13 13 13 12 13 12 8 7 8 9 9 7 3 3 3 1 2 3 3
10 9 8 13 13 11 12 12 8 5 5 7 7 7 9 8 9 11 11 10 11 11 12 11 12 12 12 10 9 9 9 9 11 10 11 10 12 12 11 11 9 9 9 6 5 4 2 0 1 3 1 5
Wind_Direction
138 140 140 138 136 139 133 132 135 136 141 137 133 131 130 129 121 123 129 127 121 123 126 124 122 124 122 120 122 125 131 133 133 130 126 119 114 110 108 106 107 106 102 93 78 75 70 65 53 44 91 110
136 135 136 133 135 140 130 132 134 137 137 135 134 137 136 131 126 126 129 128 126 126 125 124 123 123 123 122 126 127 131 133 131 127 125 119 115 112 110 110 109 103 98 88 80 76 72 66 57 53 85 106
135 131 127 124 127 129 126 134 143 128 109 112 128 128 124 127 126 123 129 124 124 122 127 126 127 127 124 121 127 130 133 131 127 123 121 119 119 120 119 113 107 104 98 83 84 80 75 67 63 63 87 100
127 120 117 119 120 106 94 86 81 78 78 74 71 66 77 121 129 129 127 126 129 130 125 129 128 128 127 123 128 132 131 129 128 123 125 123 122 123 122 111 105 100 93 79 80 78 72 68 72 82 83 87
128 119 117 114 96 89 93 90 85 85 89 87 75 88 92 97 131 134 131 131 133 126 124 116 124 133 129 126 130 129 130 128 126 127 123 125 126 126 115 105 101 94 77 74 73 70 68 73 79 74 76 89
123 128 128 125 117 114 106 104 108 105 100 94 105 99 108 122 129 134 138 126 135 140 117 105 115 128 130 127 130 127 127 130 124 124 116 104 103 104 107 110 107 93 75 70 69 65 70 80 82 75 77 86
131 135 132 126 115 108 106 110 112 114 107 104 105 107 114 126 120 125 114 101 66 137 137 99 82 128 132 128 127 125 128 116 112 111 106 114 113 105 95 94 105 104 106 93 77 75 76 83 78 77 79 79
136 136 129 128 129 127 125 122 117 113 111 112 112 115 124 120 106 110 108 91 88 86 135 86 70 68 68 77 106 129 129 116 103 100 98 101 97 97 100 109 105 110 110 103 93 86 87 86 80 79 80 80
135 131 129 129 130 131 134 131 128 125 119 117 114 114 116 111 109 118 126 134 132 141 132 142 132 118 115 111 96 79 78 85 92 102 119 113 110 141 121 112 106 112 108 102 96 92 91 90 87 84 80 81
134 136 133 133 134 134 135 136 133 134 135 129 124 120 120 123 123 125 128 128 128 127 129 127 130 121 117 116 108 108 103 98 102 116 118 107 119 128 131 96 90 95 103 103 101 96 90 92 92 88 82 81
139 141 134 135 141 141 143 144 143 143 142 138 130 128 134 142 140 135 135 131 131 130 137 129 129 126 128 126 123 123 123 117 117 127 131 126 117 116 108 93 86 85 83 89 97 96 89 88 91 90 85 81
140 134 131 132 133 144 145 152 151 147 145 136 139 143 147 147 146 144 140 142 141 135 131 126 121 128 128 123 121 127 130 132 130 131 128 125 119 121 125 115 104 99 95 92 95 97 92 91 90 87 87 80
139 135 130 137 143 141 149 158 153 144 140 148 146 141 142 150 149 148 146 146 145 142 130 127 135 137 129 125 125 134 133 133 136 140 139 140 143 145 145 140 123 110 104 107 99 101 100 98 91 89 89 83
140 145 142 145 145 139 153 152 144 141 150 150 150 147 151 152 156 155 151 146 145 145 138 136 133 131 132 131 136 144 143 143 146 148 149 147 149 151 153 148 129 134 114 106 106 108 108 104 104 99 93 86
142 143 146 152 145 146 154 142 141 151 145 147 152 152 147 150 151 148 150 147 149 147 144 145 147 143 137 140 143 149 143 143 147 151 155 155 155 159 157 145 141 144 131 119 113 109 110 107 106 99 103 107
145 150 149 148 143 148 145 144 156 150 152 149 147 143 149 154 153 154 146 148 149 152 151 153 150 146 152 148 144 146 147 149 150 151 143 148 153 152 152 143 143 143 139 133 122 116 108 113 119 125 130 131
147 144 140 144 146 142 141 148 144 152 155 149 141 145 151 154 153 156 155 153 149 151 154 150 150 153 152 149 149 142 138 142 151 148 151 149 157 152 149 147 139 136 136 132 129 132 134 133 130 136 141 141
144 147 144 139 137 133 140 141 143 149 149 148 145 148 151 150 157 161 157 154 152 156 154 153 158 158 153 148 144 141 149 162 170 167 163 161 168 157 158 155 152 152 147 143 145 143 146 147 146 148 150 149
145 147 144 139 135 141 145 146 148 152 151 154 152 150 152 157 159 162 159 160 157 160 158 161 163 163 158 149 152 152 161 170 174 175 173 172 170 165 164 159 160 162 154 154 156 155 157 155 152 155 150 149
140 140 133 128 124 136 149 152 154 155 152 155 151 154 154 161 159 163 163 162 164 161 166 168 167 168 154 152 158 160 159 170 177 177 181 184 180 171 171 166 167 169 160 159 157 160 162 153 162 157 155 157
128 131 129 127 128 126 133 148 148 153 147 152 159 160 160 163 162 165 165 168 169 169 168 171 168 162 155 162 164 163 163 173 176 175 185 187 195 193 172 173 169 168 166 160 161 163 163 161 167 164 163 167
118 121 111 110 110 120 133 135 142 153 156 163 168 164 163 163 164 167 168 171 173 175 171 170 167 157 160 166 169 168 171 176 174 179 188 188 193 198 183 180 177 172 167 161 163 165 167 169 177 172 172 170
103 99 94 93 110 125 128 129 133 152 168 172 170 174 162 161 166 167 170 173 176 175 171 169 165 161 164 171 174 173 174 175 176 178 188 192 188 197 202 191 184 176 165 163 164 168 173 179 187 182 181 179
126 129 135 136 126 136 166 161 163 176 181 176 179 174 164 170 171 167 171 175 177 177 174 172 169 166 166 174 178 179 181 181 181 181 181 190 189 189 192 208 183 176 166 161 163 171 178 193 197 201 193 202
160 155 142 140 181 178 174 176 170 181 186 180 179 168 173 176 179 169 169 174 176 180 174 175 170 169 172 177 181 186 190 189 184 182 181 180 185 189 190 193 187 180 177 164 170 178 195 203 208 212 213 213
174 179 180 166 175 169 167 165 175 183 186 184 175 175 179 180 181 175 174 172 178 180 179 178 174 178 177 179 184 188 188 187 184 182 184 180 181 193 198 196 191 180 181 192 190 182 192 211 207 211 216 220
180 160 102 116 134 155 147 148 150 152 160 165 172 176 182 182 183 181 181 175 177 180 184 184 180 182 180 185 182 184 187 186 186 187 189 187 187 180 199 206 189 192 202 196 200 193 198 206 203 200 213 219
163 114 72 54 74 78 84 136 123 106 125 153 169 185 188 189 187 187 187 184 181 182 187 188 187 183 186 187 189 190 187 188 191 189 192 193 197 187 183 195 191 202 209 231 181 190 207 210 207 217 214 204
155 132 110 99 87 86 85 84 136 157 193 193 194 193 195 196 187 191 191 187 188 188 188 189 189 188 188 188 190 193 195 193 194 192 195 195 197 198 194 190 188 194 209 223 247 257 178 183 221 232 60 168
162 170 162 147 147 160 175 180 181 197 195 185 192 198 188 189 192 193 197 194 191 192 189 191 193 192 189 189 191 196 198 196 192 197 196 197 199 202 206 196 181 191 204 220 240 265 326 350 311 238 152 190
169 169 177 187 189 183 188 190 205 196 179 181 179 172 182 186 188 196 199 198 195 194 194 193 194 194 192 191 192 192 196 198 197 195 197 193 200 205 202 204 201 191 189 200 242 236 244 29 285 326 259 214